Weather in Dubovskoe

Russia / Rostov Oblast     47°24′44″N   42°46′15″E
temp.,
°C
wind,
m/s
gust,
m/s
humid.,
%
clouds,
%
prec.,
mm/h
press.,
hPa
HPBL,
m
31 july, sat
sat3100:00+26ssw22245 0.0 100914
03:00+23s34351 0.0 100947
06:00+23s24420 0.0 1010102
09:00+31ssw34280 0.0 1010601
12:00+34se54170 0.0 10093042
15:00+35sse43134 0.0 10083168
18:00+34sse33154 0.0 10083049
21:00+28se33240 0.0 101015
1 august, sun
sun100:00+26se23280 0.0 101016
03:00+24ese11300 0.0 101011
06:00+25e22310 0.0 101132
09:00+33ese45185 0.0 1012873
12:00+36se44161 0.0 10113602
15:00+37ese33156 0.0 10093946
18:00+36ene551545 0.0 10091885
21:00+29ene332212 0.0 101032
2 august, mon
mon200:00+27ese22240 0.0 101015
03:00+26se23300 0.0 101017
06:00+26se22380 0.0 101139
09:00+34ese33284 0.0 1011887
12:00+37ese55180 0.0 10103104
15:00+38se441910 0.0 10093890
18:00+37sse65171 0.0 10082773
21:00+29nnw00300 0.0 100911
3 august, tue
tue300:00+28se48270 0.0 1009139
03:00+27sse46260 0.0 100978
06:00+26sse3431100 0.0 101079
09:00+34s342736 0.0 1009632
12:00+38s45203 0.0 10083855
15:00+36nnw3320100 0.0 10071474
18:00+34ese332426 0.1 100799
21:00+26nne485636 0.1 1010168
4 august, wed
wed400:00+25nnw355610 0.1 1011110
03:00+23nnw36625 0.1 1011117
06:00+23nnw477072 0.0 1013261
09:00+25n6752100 0.0 1014500
12:00+29n66421 0.0 10141032
15:00+31n45315 0.0 10141880
18:00+31n442869 0.0 10141915
21:00+25nne44395 0.0 101553